Overview Statistics Trail Chart Weather Telemetry Raw packets
 

This is the latest recevied weather packets stored in our database for station/object WL7CLI. If no packets are shown the sender has not sent any weather packets the latest 10 day(s).

<< 35 36 37 38 39 40 41 >>
Time Temp. Humidity Pressure Rain* Wind** Luminosity Snow
1788366490 31.11° C 60% 1011.5 hPa 0 mm - - -
1788365702 31.11° C 59% 1012.1 hPa 0 mm - - -
1788365620 30.56° C 61% 1012.2 hPa 0 mm - - -
1788365432 30.56° C 61% 1012.2 hPa 0 mm - - -
1788364689 30.56° C 61% 1011.5 hPa 0 mm - - -
1788364502 30.56° C 62% 1012.2 hPa 0 mm - - -
1788364362 30° C 62% 1012.3 hPa 0 mm - - -
1788364230 30° C 62% 1012.3 hPa 0 mm - - -
1788363302 29.44° C 66% 1012.5 hPa 0 mm - - -
1788363217 29.44° C 66% 1012.5 hPa 0 mm - - -
1788363156 29.44° C 66% 1012.5 hPa 0 mm - - -
1788363029 29.44° C 66% 1012.5 hPa 0 mm - - -
1788362890 29.44° C 66% 1011.9 hPa 0 mm - - -
1788362102 28.89° C 67% 1012.6 hPa 0 mm - - -
1788361973 28.89° C 66% 1012.6 hPa 0 mm - - -
1788361901 28.89° C 66% 1012.6 hPa 0 mm - - -
1788361852 28.89° C 66% 1012.6 hPa 0 mm - - -
1788361090 28.33° C 66% 1012 hPa 0 mm - - -
1788360906 28.33° C 65% 1012.9 hPa 0 mm - - -
1788360902 28.33° C 66% 1012.8 hPa 0 mm - - -
1788360754 28.33° C 65% 1012.9 hPa 0 mm - - -
1788360698 28.33° C 65% 1012.9 hPa 0 mm - - -
1788360660 28.33° C 65% 1012.9 hPa 0 mm - - -
1788360629 28.33° C 65% 1012.9 hPa 0 mm - - -
1788359702 27.78° C 68% 1013 hPa 0 mm - - -

* Rain latest hour (hover to see other rain measurements)
** Current wind speed in m/s (hover to see current wind gust speed)